[[{"header":{"parameterUnit":"m.s-1","parameterCategory":1,"la1":30.2991,"la2":30.254,"lo1":-89.0895,"lo2":-89.0444,"dy":0.0017,"dx":0.0017,"nx":28,"ny":28,"refTime":"2024-02-09T03:00:00:Z","depth":0,"parameterNumber":2,"parameterNumberName":"U-component_of_WINDS"},"data":[0,0,0,0,0,0,0,0,0,0,0,0,0,0,0,0,0,0,0,0,0,0,0,0,0,0,0,0,0,0,0,0,0,0,0,0,0,0,0,0,0,0,0,0,0,0,0,0,0,0,0,0,0,0,0,0,0,0,-3.5645,-3.5646,0,-3.5759,-3.576,-3.5762,-3.5739,-3.5737,-3.5735,-3.5733,-3.5851,-3.5856,-3.5861,0,0,0,0,0,0,0,0,0,0,0,0,0,-3.5408,-3.5412,-3.5645,-3.5646,-3.5647,-3.5759,-3.576,-3.5762,-3.574,-3.5737,-3.5735,-3.5732,-3.5849,-3.5855,-3.5861,0,0,0,0,0,0,0,0,0,0,0,0,0,-3.5515,-3.5414,-3.5644,-3.565,-3.5651,-3.5759,-3.5761,-3.5762,-3.574,-3.5737,-3.5734,-3.5731,-3.5847,-3.5855,-3.5862,-3.5971,0,0,-3.5885,-3.5889,0,0,0,0,0,0,0,0,-3.5509,-3.5524,-3.5648,-3.565,-3.5652,-3.5732,-3.572,-3.5833,-3.5741,-3.5707,-3.5733,-3.573,-3.5814,-3.5824,-3.5852,-3.5977,-3.5982,-3.5886,-3.5891,-3.5894,-3.5896,0,0,0,0,0,0,0,-3.5502,-3.5519,-3.569,-3.5649,-3.5652,-3.5647,-3.5659,-3.5741,-3.5776,-3.5709,-3.5708,-3.5722,-3.5814,-3.5845,-3.5855,-3.5984,-3.5886,-3.5893,-3.5897,-3.59,-3.6204,-3.6207,0,0,0,0,0,0,-3.5492,-3.5513,-3.5686,-3.5693,-3.5571,-3.5654,-3.5667,-3.5709,-3.5775,-3.5782,-3.5724,-3.572,-3.5834,-3.5846,-3.5859,-3.5991,-3.5894,-3.5901,-3.5905,-3.62,-3.6205,-3.6208,0,0,0,0,0,0,-3.5487,-3.5508,-3.5682,-3.5603,-3.5625,-3.5661,-3.5709,-3.5713,-3.5744,-3.5787,-3.5793,-3.5749,-3.5832,-3.5848,-3.5944,-3.5994,-3.5904,-3.5911,-3.6196,-3.6202,-3.6206,-3.6255,0,0,0,0,0,0,-3.5481,-3.5506,-3.5548,-3.5604,-3.5629,-3.5764,-3.5712,-3.5718,-3.5757,-3.5753,-3.5812,-3.5818,-3.583,-3.5932,-3.5951,-3.6003,-3.5917,-3.6192,-3.6199,-3.6205,-3.6249,-3.6261,-3.6272,0,0,0,0,0,-3.5472,-3.5557,-3.555,-3.5571,-3.5681,-3.5767,-3.5781,-3.5793,-3.5761,-3.5803,-3.5831,-3.5816,-3.5986,-3.5942,-3.5963,-3.6018,-3.6189,-3.6197,-3.6204,-3.6244,-3.6259,-3.6272,0,0,0,0,0,0,-3.5506,-3.5564,-3.5557,-3.5663,-3.571,-3.5763,-3.5816,-3.5809,-3.5866,-3.586,-3.5873,-3.5887,-3.5983,-3.6011,-3.5961,-3.6128,-3.6083,-3.6095,-3.6106,-3.6121,-3.6132,-3.6122,-3.5924,0,0,0,0,0,-3.5525,-3.559,-3.5638,-3.5726,-3.575,-3.578,-3.5817,-3.5823,-3.5872,-3.5892,-3.5927,-3.5976,-3.604,-3.6082,-3.6144,-3.6254,-3.6266,-3.6302,-3.6314,-3.6323,-3.6333,-3.6393,-3.641,-3.6234,-3.6234,-3.6234,0,0,-3.5566,-3.5606,-3.5646,-3.5734,-3.5771,-3.5838,-3.5796,-3.5868,-3.5918,-3.5903,-3.5995,-3.6022,-3.6078,-3.6181,-3.6228,-3.6207,-3.6385,-3.6333,-3.634,-3.6345,-3.6403,-3.642,-3.6434,-3.624,-3.6239,-3.6238,0,0,-3.5675,-3.5712,-3.579,-3.5828,-3.5885,-3.5904,-3.5923,-3.5978,-3.5996,-3.6088,-3.6078,-3.6138,-3.6249,-3.6289,-3.6323,-3.6449,-3.6438,-3.6469,-3.6528,-3.6587,-3.66,-3.6613,-3.6657,-3.6673,-3.6479,-3.648,-3.648,0,-3.5718,-3.5818,-3.583,-3.5904,-3.5943,-3.5933,-3.6012,-3.6049,-3.6123,-3.615,-3.6126,-3.6265,-3.6301,-3.6414,-3.6444,-3.6473,-3.6495,-3.6461,-3.6597,-3.661,-3.6622,-3.6664,-3.668,-3.6483,-3.6483,-3.6482,-3.6482,0,-3.5869,-3.5938,-3.5994,-3.6066,-3.6112,-3.6188,-3.6212,-3.6256,-3.6259,-3.628,-3.6375,-3.6419,-3.649,-3.6517,-3.652,-3.663,-3.6615,-3.6594,-3.6549,-3.6641,-3.6681,-3.6698,-3.6488,-3.6486,-3.6485,-3.6485,0,0,-3.5999,-3.6079,-3.6099,-3.6131,-3.6195,-3.6249,-3.6325,-3.6394,-3.6432,-3.6484,-3.6548,-3.6643,-3.6624,-3.6663,-3.6671,-3.6722,-3.6819,-3.6695,-3.6696,-3.6715,-3.6943,-3.6957,-3.6975,-3.6812,-3.6816,-3.6818,-3.6937,0,-3.6113,-3.6246,-3.626,-3.6379,-3.6443,-3.6436,-3.6502,-3.6548,-3.6572,-3.663,-3.6656,-3.6722,-3.6692,-3.6716,-3.6767,-3.6796,-3.6864,-3.6788,-3.6871,-3.6874,-3.6856,-3.6996,-3.7012,-3.7122,-3.6953,-3.6956,-3.6958,0,-3.6262,-3.6319,-3.6445,-3.6499,-3.6527,-3.6586,-3.6651,-3.6707,-3.676,-3.6773,-3.6818,-3.6819,-3.6898,-3.6851,-3.6959,-3.6907,-3.6943,-3.6962,-3.6967,-3.6974,-3.692,-3.7006,-3.7158,-3.7173,-3.6983,-3.6981,-3.6979,0,-3.6344,-3.6452,-3.6541,-3.6569,-3.6636,-3.6678,-3.6707,-3.6757,-3.6798,-3.6855,-3.6882,-3.6947,-3.6983,-3.7034,-3.7053,-3.7017,-3.7161,-3.7115,-3.7173,-3.7173,-3.7202,-3.72,-3.736,-3.7228,-3.7228,-3.7227,-3.7227,0,-3.6468,-3.6545,-3.6578,-3.6633,-3.6719,-3.6735,-3.682,-3.6848,-3.6893,-3.6953,-3.6951,-3.7008,-3.703,-3.7091,-3.7106,-3.7194,-3.721,-3.7223,-3.7226,-3.7222,-3.722,-3.7244,-3.7236,-3.7232,-3.7231,-3.723,-3.7229,0,-3.6572,-3.6598,-3.6694,-3.675,-3.6766,-3.6827,-3.6874,-3.6927,-3.6951,-3.7027,-3.7046,-3.7082,-3.7153,-3.7178,-3.7264,-3.7275,-3.7376,-3.7373,-3.7358,-3.7358,-3.7414,-3.7408,-3.7594,-3.7619,-3.7472,-3.7473,-3.7474,0,-3.6649,-3.6708,-3.677,-3.681,-3.6841,-3.6906,-3.6948,-3.6967,-3.7011,-3.7076,-3.7121,-3.7192,-3.7249,-3.7364,-3.7398,-3.7464,-3.7462,-3.7523,-3.7472,-3.7466,-3.7462,-3.7457,-3.7463,-3.7532,-3.7533,-3.7535,-3.7536,0,-3.6782,-3.6792,-3.6852,-3.6917,-3.6967,-3.702,-3.707,-3.7103,-3.713,-3.7179,-3.7252,-3.7297,-3.7385,-3.7456,-3.7524,-3.7555,-3.755,-3.7552,-3.7568,-3.7564,-3.7552,-3.7559,-3.7382,-3.7547,-3.7546,-3.7545,-3.7544,-3.7544,-3.6874,-3.6926,-3.6978,-3.7045,-3.7085,-3.7133,-3.7186,-3.7216,-3.7277,-3.735,-3.7358,-3.7436,-3.7489,-3.758,-3.7614,-3.7676,-3.7659,-3.7684,-3.7689,-3.7695,-3.7698,-3.7544,-3.7689,-3.7689,-3.7688,-3.7688,-3.7688,0,-3.7005,-3.7039,-3.7101,-3.7172,-3.7225,-3.7217,-3.7273,-3.7318,-3.7387,-3.7436,-3.7493,-3.7577,-3.7645,-3.7686,-3.7755,-3.7796,-3.7796,-3.7814,-3.781,-3.7817,-3.771,-3.7688,-3.7813,-3.7813,-3.7813,-3.7813,-3.7813,-3.7813,-3.708,-3.7167,-3.7184,-3.7292,-3.7325,-3.7402,-3.7434,-3.7479,-3.7518,-3.7612,-3.7669,-3.7695,-3.7741,-3.7813,-3.7876,-3.7886,-3.7911,-3.793,-3.7939,-3.7838,-3.7825,-3.7812,-3.7792,-3.7936,-3.7936,-3.804,-3.8041,-3.8042]},{"header":{"parameterUnit":"m.s-1","parameterCategory":1,"la1":30.2991,"la2":30.254,"lo1":-89.0895,"lo2":-89.0444,"dy":0.0017,"dx":0.0017,"nx":28,"ny":28,"refTime":"2024-02-09T03:00:00:Z","depth":0,"parameterNumber":3,"parameterNumberName":"V-component_of_WINDS"},"data":[0,0,0,0,0,0,0,0,0,0,0,0,0,0,0,0,0,0,0,0,0,0,0,0,0,0,0,0,0,0,0,0,0,0,0,0,0,0,0,0,0,0,0,0,0,0,0,0,0,0,0,0,0,0,0,0,0,0,1.4963,1.4965,0,1.5097,1.5098,1.51,1.5154,1.5154,1.5154,1.5154,1.529,1.5294,1.5298,0,0,0,0,0,0,0,0,0,0,0,0,0,1.4758,1.4761,1.4963,1.4965,1.4967,1.5096,1.5098,1.51,1.5155,1.5154,1.5154,1.5153,1.5289,1.5294,1.5298,0,0,0,0,0,0,0,0,0,0,0,0,0,1.4865,1.4762,1.4963,1.5009,1.5015,1.5096,1.5098,1.5101,1.5155,1.5154,1.5154,1.5153,1.5288,1.5293,1.5299,1.5344,0,0,1.5317,1.532,0,0,0,0,0,0,0,0,1.4859,1.4872,1.5001,1.5006,1.5013,1.5108,1.5076,1.5182,1.5155,1.5102,1.5154,1.5153,1.523,1.5241,1.5267,1.535,1.5356,1.5318,1.5321,1.5324,1.5325,0,0,0,0,0,0,0,1.4851,1.4867,1.5016,1.5003,1.501,1.5024,1.5039,1.5096,1.5167,1.5106,1.511,1.5125,1.5233,1.5261,1.527,1.5358,1.5317,1.5323,1.5326,1.5329,1.5488,1.5489,0,0,0,0,0,0,1.4836,1.486,1.5012,1.502,1.4933,1.5028,1.5045,1.5078,1.5166,1.5179,1.5126,1.5127,1.5251,1.5263,1.5275,1.5336,1.5324,1.5329,1.5332,1.5487,1.5488,1.5489,0,0,0,0,0,0,1.4831,1.4849,1.5006,1.4941,1.4963,1.5032,1.5069,1.5081,1.5109,1.5181,1.5194,1.5141,1.5251,1.5267,1.5327,1.5341,1.5332,1.5337,1.5487,1.5488,1.5489,1.5455,0,0,0,0,0,0,1.4825,1.4847,1.4864,1.4941,1.4966,1.5055,1.507,1.5084,1.5119,1.5122,1.5199,1.5211,1.5252,1.5318,1.5333,1.5349,1.5342,1.5486,1.5487,1.5488,1.5455,1.5454,1.5454,0,0,0,0,0,1.4818,1.4849,1.4864,1.4882,1.4989,1.5056,1.507,1.5117,1.5119,1.5138,1.5185,1.5208,1.5337,1.5324,1.5341,1.5359,1.5485,1.5487,1.5488,1.5455,1.5454,1.5454,0,0,0,0,0,0,1.477,1.4859,1.4878,1.4935,1.4987,1.5065,1.5089,1.5114,1.5167,1.5168,1.5224,1.5241,1.5297,1.5334,1.5317,1.5408,1.5413,1.5418,1.5382,1.5382,1.5381,1.5372,1.5347,0,0,0,0,0,1.4767,1.4813,1.4889,1.4932,1.4957,1.5019,1.505,1.5081,1.5138,1.516,1.5212,1.5266,1.5319,1.5352,1.5405,1.5461,1.5479,1.5482,1.5481,1.548,1.5484,1.5519,1.5521,1.5494,1.5494,1.5494,0,0,1.4759,1.4814,1.484,1.4924,1.4968,1.5016,1.5037,1.5086,1.5123,1.5168,1.5228,1.5268,1.5332,1.5391,1.5419,1.5423,1.5496,1.5483,1.5481,1.5486,1.5521,1.5523,1.5525,1.5496,1.5495,1.5495,0,0,1.4771,1.4816,1.4858,1.4902,1.4969,1.5011,1.502,1.5095,1.5123,1.5184,1.522,1.5264,1.5354,1.5399,1.5434,1.5465,1.5489,1.548,1.5478,1.5511,1.5513,1.5515,1.5528,1.5531,1.5484,1.5484,1.5484,0,1.4753,1.4826,1.4876,1.4924,1.4961,1.5005,1.5048,1.5089,1.517,1.5194,1.5198,1.5313,1.5359,1.543,1.5438,1.5464,1.5478,1.5472,1.5509,1.5511,1.5514,1.5527,1.5531,1.5482,1.5482,1.5482,1.5483,0,1.4802,1.4853,1.4878,1.4956,1.4996,1.5041,1.5099,1.5133,1.5162,1.5203,1.5266,1.5323,1.5389,1.5408,1.5436,1.5484,1.5484,1.5498,1.5504,1.5514,1.5527,1.5532,1.548,1.5481,1.5481,1.5481,0,0,1.4786,1.4892,1.4901,1.4938,1.5016,1.5057,1.5105,1.517,1.5199,1.5254,1.5296,1.5372,1.5386,1.5425,1.5459,1.5487,1.551,1.5498,1.55,1.5499,1.5568,1.5558,1.5563,1.5527,1.5528,1.5529,1.5563,0,1.4809,1.4897,1.4944,1.5013,1.5061,1.5104,1.5147,1.52,1.524,1.5288,1.5332,1.5385,1.5398,1.5423,1.5453,1.5501,1.5525,1.5499,1.5569,1.557,1.5552,1.5569,1.5559,1.5588,1.5568,1.5569,1.557,0,1.4846,1.4902,1.4975,1.505,1.5072,1.5109,1.5174,1.5218,1.528,1.5308,1.5353,1.5387,1.5441,1.5442,1.5518,1.55,1.5531,1.5559,1.5562,1.557,1.5571,1.5579,1.5598,1.5603,1.5578,1.5577,1.5577,0,1.4829,1.4921,1.4978,1.5008,1.5097,1.5122,1.516,1.5222,1.5259,1.5315,1.534,1.5402,1.5436,1.5483,1.5534,1.553,1.5605,1.5611,1.563,1.5629,1.5644,1.5643,1.5669,1.5663,1.5663,1.5663,1.5663,0,1.4849,1.4893,1.4972,1.5006,1.5057,1.5112,1.5161,1.5202,1.5257,1.5302,1.5343,1.5384,1.5448,1.5497,1.5537,1.5595,1.5609,1.5634,1.5644,1.563,1.5627,1.5652,1.5652,1.5664,1.5664,1.5663,1.5663,0,1.4838,1.4892,1.4957,1.5037,1.5058,1.5092,1.516,1.5196,1.5239,1.5295,1.5311,1.5379,1.5439,1.5494,1.5574,1.5601,1.566,1.5672,1.5639,1.5645,1.5661,1.5659,1.5705,1.5714,1.5701,1.5701,1.5701,0,1.4848,1.4883,1.4966,1.4999,1.5037,1.5089,1.5127,1.5183,1.5221,1.5296,1.5323,1.5387,1.5441,1.5535,1.5592,1.5654,1.5669,1.568,1.5678,1.5664,1.567,1.5668,1.5672,1.568,1.5679,1.5679,1.5679,0,1.486,1.4886,1.4939,1.5002,1.5047,1.5099,1.5153,1.5178,1.5244,1.5285,1.5348,1.539,1.5472,1.5535,1.5604,1.5644,1.5673,1.568,1.5688,1.5675,1.5654,1.5667,1.5638,1.5678,1.5678,1.5679,1.5679,1.5679,1.486,1.4894,1.4959,1.5017,1.5064,1.5114,1.5153,1.5201,1.5254,1.5326,1.5356,1.542,1.5483,1.5579,1.5619,1.5671,1.5676,1.5687,1.5691,1.5693,1.5691,1.5646,1.5683,1.5683,1.5683,1.5683,1.5684,0,1.4875,1.492,1.4973,1.5048,1.5095,1.5118,1.518,1.5217,1.5273,1.533,1.5383,1.5456,1.5518,1.558,1.5646,1.5675,1.569,1.569,1.5689,1.5698,1.5681,1.5668,1.5677,1.5677,1.5677,1.5677,1.5677,1.5677,1.4889,1.4948,1.4982,1.5065,1.5109,1.5172,1.5206,1.5253,1.5299,1.5379,1.5431,1.5471,1.553,1.5601,1.566,1.5676,1.5699,1.5696,1.5716,1.5699,1.5699,1.5699,1.5687,1.57,1.57,1.573,1.573,1.573]}]]